IZ1HKE-13 Weather Reports


time (UTC)temp
C
wind
direction
speed
KPH
gust
KPH
rain 1hr
cm
rain 24hr
cm
rain mn
cm
humidity
%
barometer
mb
20260507225612 8 150 0.0 3.2 0.00 0.00 0.00 98 1021.4
20260507224444 8 147 0.0 3.2 0.00 0.00 0.00 97 1021.3
20260507223317 8 152 0.0 0.0 0.00 0.00 0.00 97 1021.4
20260507222150 9 165 0.0 3.2 0.00 0.00 0.00 97 1021.2
20260507221022 9 152 0.0 4.8 0.00 0.00 0.00 97 1021.2
20260507215855 9 127 4.8 4.8 0.00 0.00 0.00 97 1021.1
20260507214727 10 125 0.0 0.0 0.00 0.00 0.00 97 1020.9
20260507213547 10 125 0.0 0.0 0.00 0.00 0.00 96 1020.9
20260507212420 10 125 0.0 0.0 0.00 0.00 0.00 96 1020.9
20260507211252 10 125 0.0 0.0 0.00 0.00 0.00 95 1020.8
20260507210125 10 126 0.0 0.0 0.00 0.00 0.00 93 1020.8
20260507204957 11 126 0.0 0.0 0.00 0.00 0.00 92 1020.8
20260507203830 11 124 0.0 0.0 0.00 0.00 0.00 90 1020.7
20260507202702 11 174 0.0 0.0 0.00 0.00 0.00 90 1020.7
20260507201535 11 174 0.0 3.2 0.00 0.00 0.00 91 1020.6
20260507200407 12 134 0.0 1.6 0.00 0.00 0.00 88 1020.4
20260507195240 12 134 0.0 3.2 0.00 0.00 0.00 84 1020.1
20260507194112 12 146 3.2 4.8 0.00 0.00 0.00 85 1020.0
20260507192945 12 168 3.2 4.8 0.00 0.00 0.00 86 1020.0
20260507191817 13 133 3.2 3.2 0.00 0.00 0.00 83 1019.9
20260507190650 14 126 0.0 3.2 0.00 0.00 0.00 76 1019.8
20260507185522 14 168 4.8 6.4 0.00 0.00 0.00 78 1019.7
20260507184355 15 186 0.0 4.8 0.00 0.00 0.00 77 1019.7
20260507183227 15 156 4.8 4.8 0.00 0.00 0.00 74 1019.6
20260507182059 15 151 0.0 9.7 0.00 0.00 0.00 73 1019.5
20260507180931 16 204 4.8 12.9 0.00 0.00 0.00 69 1019.4
20260507175804 16 180 6.4 14.5 0.00 0.00 0.00 67 1019.4
20260507174636 17 157 3.2 14.5 0.00 0.00 0.00 66 1019.3
20260507173508 17 197 0.0 11.3 0.00 0.00 0.00 65 1019.3
20260507172341 18 192 9.7 11.3 0.00 0.00 0.00 62 1019.2
20260507171213 18 229 4.8 14.5 0.00 0.00 0.00 64 1019.2
20260507170046 18 181 4.8 14.5 0.00 0.00 0.00 60 1019.0
20260507164918 18 123 11.3 14.5 0.00 0.00 0.00 58 1018.9
20260507163751 18 168 11.3 17.7 0.00 0.00 0.00 55 1018.9
20260507162623 19 126 11.3 16.1 0.00 0.00 0.00 57 1018.9
20260507161455 19 186 12.9 12.9 0.00 0.00 0.00 56 1018.8
20260507160328 19 138 4.8 20.9 0.00 0.00 0.00 58 1018.8
20260507155200 19 114 8.0 20.9 0.00 0.00 0.00 60 1018.9
20260507154032 19 144 12.9 20.9 0.00 0.00 0.00 58 1018.8
20260507152904 19 234 16.1 22.5 0.00 0.00 0.00 58 1018.8
20260507151736 20 150 12.9 27.4 0.00 0.00 0.00 58 1018.8
20260507150609 20 103 17.7 22.5 0.00 0.00 0.00 58 1018.8
20260507145441 20 204 20.9 24.1 0.00 0.00 0.00 59 1018.9
20260507144314 20 197 11.3 14.5 0.00 0.00 0.00 59 1018.8
20260507143146 20 166 8.0 27.4 0.00 0.00 0.00 56 1018.9
20260507142018 20 128 8.0 14.5 0.00 0.00 0.00 56 1018.9
20260507140850 20 186 4.8 17.7 0.00 0.00 0.00 53 1019.0
20260507135723 20 132 4.8 14.5 0.00 0.00 0.00 55 1019.1
20260507134555 21 188 6.4 14.5 0.00 0.00 0.00 51 1019.1
20260507133427 21 178 6.4 17.7 0.00 0.00 0.00 49 1019.1
20260507132300 21 187 4.8 14.5 0.00 0.00 0.00 50 1019.2
20260507131132 22 108 11.3 17.7 0.00 0.00 0.00 48 1019.4
20260507130005 21 204 8.0 17.7 0.00 0.00 0.00 52 1019.5
20260507124837 20 121 3.2 12.9 0.00 0.00 0.00 54 1019.6
20260507123710 20 206 12.9 19.3 0.00 0.00 0.00 55 1019.7
20260507122543 20 132 4.8 20.9 0.00 0.00 0.00 54 1019.6
20260507121415 20 126 9.7 20.9 0.00 0.00 0.00 56 1019.7
20260507120247 20 230 12.9 17.7 0.00 0.00 0.00 53 1019.8
20260507115120 19 165 17.7 20.9 0.00 0.00 0.00 57 1019.8
20260507113953 19 204 17.7 24.1 0.00 0.00 0.00 56 1019.9
20260507112825 21 138 8.0 17.7 0.00 0.00 0.00 50 1019.9
20260507111658 22 213 14.5 14.5 0.00 0.00 0.00 48 1019.9
20260507110530 21 132 4.8 6.4 0.00 0.00 0.00 48 1020.1
20260507105403 23 210 8.0 8.0 0.00 0.00 0.00 50 1020.1
20260507104210 20 144 6.4 8.0 0.00 0.00 0.00 56 1020.2
20260507103043 20 193 3.2 9.7 0.00 0.00 0.00 56 1020.4
20260507101915 18 192 9.7 17.7 0.00 0.00 0.00 60 1020.5
20260507100747 18 195 12.9 16.1 0.00 0.00 0.00 62 1020.6
20260507095620 19 132 6.4 9.7 0.00 0.00 0.00 63 1020.6
20260507094452 18 201 1.6 4.8 0.00 0.00 0.00 65 1020.6
20260507093324 17 126 0.0 8.0 0.00 0.00 0.00 70 1020.7
20260507092157 17 207 0.0 8.0 0.00 0.00 0.00 69 1020.6
20260507091029 16 198 9.7 11.3 0.00 0.00 0.00 74 1020.6
20260507085902 16 190 8.0 11.3 0.00 0.00 0.00 77 1020.6
20260507084734 16 246 3.2 4.8 0.00 0.00 0.00 76 1020.5
20260507083607 16 342 3.2 4.8 0.00 0.00 0.00 77 1020.5
20260507082440 16 207 0.0 1.6 0.00 0.00 0.00 77 1020.5
20260507081312 16 342 0.0 0.0 0.00 0.00 0.00 78 1020.4
20260507080145 15 344 0.0 1.6 0.00 0.00 0.00 79 1020.3
20260507075017 15 345 0.0 4.8 0.00 0.00 0.00 80 1020.2
20260507073850 15 333 0.0 6.4 0.00 0.00 0.00 82 1020.1
20260507072722 15 174 0.0 0.0 0.00 0.00 0.00 84 1020.3
20260507071555 15 209 0.0 0.0 0.00 0.00 0.00 82 1020.2
20260507070427 15 323 0.0 3.2 0.00 0.00 0.00 85 1020.0
20260507065300 14 123 1.6 4.8 0.00 0.00 0.00 86 1019.9
20260507064132 13 126 0.0 0.0 0.00 0.00 0.00 87 1019.9
20260507063005 12 125 0.0 0.0 0.00 0.00 0.00 92 1019.8
20260507061837 11 126 0.0 0.0 0.00 0.00 0.00 93 1019.6
20260507060710 11 126 0.0 0.0 0.00 0.00 0.00 95 1019.6
20260507055542 11 126 0.0 0.0 0.00 0.00 0.00 95 1019.6
20260507054415 11 121 0.0 0.0 0.00 0.00 0.00 95 1019.5
20260507053247 10 122 0.0 0.0 0.00 0.00 0.00 96 1019.3
20260507052120 10 128 0.0 0.0 0.00 0.00 0.00 97 1019.2
20260507050952 10 126 0.0 0.0 0.00 0.00 0.00 97 1019.2
20260507045825 10 84 0.0 0.0 0.00 0.00 0.00 98 1018.9
20260507044657 10 130 0.0 0.0 0.00 0.00 0.00 99 1018.9
20260507043530 9 124 0.0 0.0 0.00 0.00 0.00 99 1018.8
20260507042402 9 121 0.0 0.0 0.00 0.00 0.00 99 1018.6
20260507041235 9 124 0.0 0.0 0.00 0.00 0.00 98 1018.5
20260507040107 9 69 0.0 0.0 0.00 0.00 0.00 98 1018.4
20260507034927 9 113 0.0 0.0 0.00 0.00 0.00 98 1018.3
20260507033800 10 143 0.0 0.0 0.00 0.00 0.00 98 1018.2
20260507032633 10 144 0.0 4.8 0.00 0.00 0.00 97 1018.1
20260507031505 10 165 0.0 0.0 0.00 0.00 0.00 96 1018.0
20260507030337 10 171 0.0 0.0 0.00 0.00 0.00 95 1018.1
20260507025210 11 318 0.0 6.4 0.00 0.00 0.00 93 1018.0
20260507024042 10 306 0.0 3.2 0.00 0.00 0.00 94 1018.0
20260507022915 11 127 0.0 6.4 0.00 0.00 0.00 94 1017.7
20260507021748 11 84 3.2 8.0 0.00 0.00 0.00 94 1017.6
20260507020620 10 140 4.8 4.8 0.00 0.00 0.00 95 1017.6
20260507015452 10 191 0.0 6.4 0.00 0.00 0.00 95 1017.5
20260507014325 11 125 0.0 0.0 0.00 0.00 0.00 95 1017.4
20260507013157 11 48 0.0 0.0 0.00 0.00 0.00 92 1017.5
20260507012030 11 132 0.0 0.0 0.00 0.00 0.00 94 1017.4
20260507010902 11 132 0.0 0.0 0.00 0.00 0.00 93 1017.5
20260507005735 11 132 0.0 0.0 0.00 0.00 0.00 92 1017.7
20260507004607 11 132 0.0 3.2 0.00 0.00 0.00 92 1017.8
20260507003440 12 131 0.0 0.0 0.00 0.00 0.00 90 1017.8
20260507002312 12 339 0.0 0.0 0.00 0.00 0.00 89 1017.7
20260507001145 13 18 3.2 4.8 0.00 0.00 0.00 85 1017.7
20260507000017 12 342 3.2 3.2 0.00 0.00 0.00 84 1017.5
20260506234850 12 350 0.0 6.4 0.00 0.00 0.00 84 1017.5
20260506233722 12 348 4.8 8.0 0.00 0.00 0.00 85 1017.5
20260506232555 13 357 0.0 1.6 0.00 0.00 0.00 83 1017.4
20260506231427 13 204 0.0 4.8 0.00 0.00 0.00 82 1017.2